Flag for Germany Weather past 2 weeks in Lehrte, Lower Saxony, Germany

Now
61 °F

Partly sunny.


Feels Like: 61 °F
Forecast: 68 / 89 °F
Wind: 2 mph from Northeast

Location: Hannover

Current Time: Aug 30, 2015 at 8:24:34 AM

Latest Report: Aug 30, 2015 at 8:00 AM


Visibility: 6 mi

Pressure: 30.11 "Hg

Humidity: 93%

Dew point: 59 °F

Location of LehrteLocation

Historic Weather in Lehrte — Graph

°F

Lehrte temperature yesterday

Maximum temperature yesterday: 74 °F (at 6:00 PM)
Minimum temperature yesterday: 49 °F (at 7:00 AM)
Average temperature yesterday: 63 °F

Past Weeks' High & Low Weather Summary

 TemperatureHumidityPressure
High80 °F (Aug 15, 3:00 PM)100% (Aug 16, 4:00 AM)30.29 "Hg (Aug 16, 4:00 AM)
Low49 °F (Aug 29, 7:00 AM)30% (Aug 22, 1:00 PM)29.59 "Hg (Aug 24, 7:00 PM)
Average65 °F75%29.98 "Hg
* Reported Aug 15 7:00 AM — Aug 30 7:00 AM, Lehrte, Weather by CustomWeather, © 2015

Note: Actual official high and low records may vary slightly from our data, if they occured in-between our weather recording intervals... More about our weather records

Advertising

Lehrte weather history for previous 24 hours

 ConditionsComfort  
Time TempWeatherWind HumidityBarometerVisibility
7:00 AM
Sun, Aug 30
60 °FFog.2 mph95%30.09 "Hg6 mi
6:00 AM59 °FPassing clouds.2 mph95%30.09 "Hg7 mi
4:00 AM60 °FPassing clouds.2 mph93%30.11 "Hg9 mi
3:00 AM62 °FPassing clouds.2 mph89%30.11 "Hg11 mi
2:00 AM62 °FPassing clouds.2 mph89%30.13 "Hg16 mi
1:00 AM63 °FPassing clouds.2 mph86%30.14 "Hg19 mi
12:00 AM63 °FPassing clouds.1 mph83%30.14 "Hg22 mi
10:00 PM
Sat, Aug 29
65 °FPassing clouds.2 mph77%30.16 "Hg22 mi
9:00 PM66 °FPassing clouds.2 mph76%30.15 "Hg25 mi
8:00 PM70 °FScattered clouds.1 mph64%30.15 "Hg25 mi
7:00 PM73 °FScattered clouds.2 mph54%30.15 "Hg22 mi
6:00 PM74 °FScattered clouds.3 mph50%30.16 "Hg22 mi
5:00 PM73 °FScattered clouds.3 mph50%30.18 "Hg22 mi
4:00 PM74 °FScattered clouds.3 mph47%30.19 "Hg22 mi
3:00 PM74 °FScattered clouds.5 mph47%30.20 "Hg22 mi
2:00 PM71 °FScattered clouds.6 mph50%30.23 "Hg19 mi
1:00 PM71 °FPassing clouds.5 mph51%30.24 "Hg19 mi
12:00 PM70 °FPassing clouds.3 mph52%30.25 "Hg19 mi
10:00 AM65 °FSunny.2 mph71%30.26 "Hg9 mi
9:00 AM60 °FPassing clouds.2 mph81%30.25 "Hg7 mi
8:00 AM55 °FPassing clouds.1 mph90%30.24 "Hg6 mi
Weather by CustomWeather, © 2015

See weather overviewHow to use our weather pages